Weather History for Price, UT

Change the Weather History Date:

Tuesday, May 28, 2013

  Actual Average Record
Temperature  
Mean Temperature 57 °F -  
Max Temperature 68 °F 76 °F 93 °F (2000)
Min Temperature 48 °F 46 °F 34 °F (1973)
Degree Days  
Heating Degree Days 8    
Growing Degree Days 7 (Base 50)    
Moisture  
Dew Point 30 °F    
Average Humidity 38    
Maximum Humidity 66    
Minimum Humidity 19    
Precipitation  
Precipitation 0.09 in - - ()
Sea Level Pressure  
Sea Level Pressure 29.63 in    
Wind  
Wind Speed 7 mph (NW)    
Max Wind Speed 34 mph    
Max Gust Speed 48 mph    
Visibility 9 miles    
Events Rain , Thunderstorm    
Averages and records for this station are not official NWS values.
T = Trace of Precipitation, MM = Missing Value Source: NWS Daily Summary

Daily Weather History Graph

Daily Weather History Graph

Search for Another Location

Airport:

Trip Planner

Search our weather history database for the weather conditions in past years. The results will help you decide how hot, cold, wet, or windy it might be!

Date:

Astronomy

May. 28, 2013 Rise Set
Actual Time 5:59 AM MDT 8:41 PM MDT
Civil Twilight 5:27 AM MDT 9:13 PM MDT
Nautical Twilight 4:48 AM MDT 9:53 PM MDT
Astronomical Twilight 4:03 AM MDT 10:38 PM MDT
Moon No Moon Rise 9:51 AM MDT (5/28)
Length of Visible Light 15h 46m
Length of Day
14h 42m
Waning Gibbous, 82% of the Moon is Illuminated
May 28
Waning Gibbous
May 31
Last Quarter
Jun 8
New
Jun 16
First Quarter
Jun 23
Full

Hourly Weather History & Observations

Time (MDT) Temp. Dew Point Humidity Pressure Visibility Wind Dir Wind Speed Gust Speed Precip Events Conditions
12:53 AM 62.1 °F 19.0 °F 19% 29.61 in 10.0 mi Calm Calm - N/A   Mostly Cloudy
1:53 AM 60.1 °F 19.0 °F 20% 29.58 in 10.0 mi NW 3.5 mph - N/A   Mostly Cloudy
2:53 AM 57.9 °F 19.9 °F 23% 29.57 in 10.0 mi North 4.6 mph - N/A   Scattered Clouds
3:53 AM 57.9 °F 21.0 °F 24% 29.56 in 10.0 mi North 5.8 mph - N/A   Partly Cloudy
4:53 AM 59.0 °F 21.0 °F 23% 29.56 in 10.0 mi Calm Calm - N/A   Partly Cloudy
5:53 AM 60.1 °F 23.0 °F 24% 29.55 in 10.0 mi Variable 3.5 mph - N/A   Overcast
6:53 AM 57.9 °F 26.1 °F 30% 29.57 in 10.0 mi Calm Calm - N/A   Mostly Cloudy
7:53 AM 62.1 °F 25.0 °F 24% 29.55 in 8.0 mi Calm Calm - N/A   Clear
8:53 AM 63.0 °F 27.0 °F 26% 29.55 in 10.0 mi Calm Calm - N/A   Scattered Clouds
9:53 AM 64.9 °F 24.1 °F 21% 29.55 in 10.0 mi Calm Calm - N/A   Mostly Cloudy
10:53 AM 66.0 °F 24.1 °F 20% 29.54 in 10.0 mi WNW 15.0 mph 24.2 mph N/A   Overcast
11:53 AM 64.9 °F 27.0 °F 24% 29.57 in 10.0 mi NW 13.8 mph 24.2 mph N/A   Overcast
12:53 PM 64.9 °F 30.0 °F 27% 29.56 in 10.0 mi WNW 13.8 mph 18.4 mph N/A   Overcast
1:53 PM 63.0 °F 30.0 °F 29% 29.58 in 10.0 mi WSW 25.3 mph 34.5 mph 0.00 in   Overcast
2:53 PM 62.1 °F 37.0 °F 39% 29.58 in 10.0 mi ESE 4.6 mph - 0.00 in   Overcast
3:53 PM 59.0 °F 34.0 °F 39% 29.63 in 10.0 mi West 34.5 mph 48.3 mph N/A Thunderstorm Thunderstorm
4:00 PM 53.6 °F 37.4 °F 54% 29.76 in 3.0 mi NW 24.2 mph 48.3 mph 0.07 in Rain , Thunderstorm Heavy Thunderstorms and Rain
4:07 PM 50.0 °F 39.2 °F 66% 29.78 in 2.0 mi WNW 26.5 mph 47.2 mph 0.09 in Rain , Thunderstorm Light Thunderstorms and Rain
4:11 PM 51.8 °F 39.2 °F 62% 29.79 in 6.0 mi WNW 23.0 mph 47.2 mph 0.09 in Rain Light Rain
4:53 PM 55.9 °F 41.0 °F 57% 29.64 in 10.0 mi NW 9.2 mph - 0.09 in   Mostly Cloudy
5:53 PM 54.0 °F 37.9 °F 55% 29.69 in 10.0 mi WNW 3.5 mph - N/A   Overcast
6:53 PM 54.0 °F 36.0 °F 51% 29.68 in 10.0 mi West 4.6 mph - N/A   Overcast
7:53 PM 54.0 °F 34.0 °F 47% 29.68 in 10.0 mi West 12.7 mph 20.7 mph N/A   Mostly Cloudy
8:53 PM 51.1 °F 36.0 °F 56% 29.68 in 10.0 mi NW 6.9 mph - N/A   Partly Cloudy
9:53 PM 48.9 °F 35.1 °F 59% 29.71 in 10.0 mi NNW 10.4 mph - N/A   Partly Cloudy
10:53 PM 48.9 °F 34.0 °F 56% 29.72 in 10.0 mi NNW 8.1 mph - N/A   Clear
11:53 PM 48.0 °F 35.1 °F 61% 29.73 in 10.0 mi NW 10.4 mph - N/A   Clear